• In Belarus
  • List of Countries
  • For 7 days
  • Water Temperature
  • Weather Map
  • Weather Widgets
  • user-avatar
    Login

    Hourly Weather Aktogay

    Today, 26 January, Sunday

    Time Temperature Precipitation Wind Pressure Humidity
    00:00 -4°C° 0 mm 1 mps 656 mmHg 71%
    01:00 -6°C° 0 mm 2 mps 656 mmHg 69%
    02:00 -6°C° 0 mm 2 mps 656 mmHg 68%
    03:00 -6°C° 0 mm 2 mps 657 mmHg 68%
    04:00 -4°C° 0 mm 1 mps 657 mmHg 69%
    05:00 -4°C° 0 mm 1 mps 657 mmHg 70%
    06:00 -3°C° 0 mm 1 mps 658 mmHg 73%
    07:00 -3°C° 0 mm 1 mps 658 mmHg 77%
    08:00 -3°C° 0 mm 1 mps 659 mmHg 80%
    09:00 -2°C° 0.1 mm 1 mps 659 mmHg 84%
    10:00 -2°C° 0.1 mm 1 mps 659 mmHg 87%
    11:00 -1°C° 0.1 mm 1 mps 659 mmHg 91%
    12:00 -1°C° 0.1 mm 1 mps 659 mmHg 91%
    13:00 -1°C° 0.1 mm 1 mps 659 mmHg 91%
    14:00 0°C° 0.1 mm 1 mps 658 mmHg 91%
    15:00 -2°C° 0 mm 1 mps 658 mmHg 93%
    16:00 -3°C° 0 mm 1 mps 658 mmHg 95%
    17:00 -6°C° 0 mm 0 mps 658 mmHg 97%
    18:00 -6°C° 0 mm 1 mps 658 mmHg 94%
    19:00 -6°C° 0 mm 1 mps 658 mmHg 91%
    20:00 -6°C° 0 mm 1 mps 659 mmHg 88%
    21:00 -6°C° 0 mm 1 mps 659 mmHg 85%
    22:00 -7°C° 0 mm 1 mps 658 mmHg 83%
    23:00 -8°C° 0 mm 2 mps 658 mmHg 81%

    Tomorrow, 27 January, Monday

    Time Temperature Precipitation Wind Pressure Humidity
    00:00 -8°C° 0 mm 2 mps 658 mmHg 79%
    01:00 -9°C° 0 mm 2 mps 658 mmHg 77%
    02:00 -9°C° 0 mm 2 mps 657 mmHg 76%
    03:00 -9°C° 0 mm 2 mps 657 mmHg 74%
    04:00 -9°C° 0 mm 2 mps 657 mmHg 72%
    05:00 -9°C° 0 mm 2 mps 657 mmHg 70%
    06:00 -9°C° 0 mm 2 mps 657 mmHg 68%
    07:00 -8°C° 0 mm 2 mps 657 mmHg 66%
    08:00 -8°C° 0 mm 2 mps 657 mmHg 64%
    09:00 -6°C° 0 mm 2 mps 657 mmHg 65%
    10:00 -3°C° 0 mm 1 mps 657 mmHg 67%
    11:00 -1°C° 0 mm 1 mps 657 mmHg 68%
    12:00 -1°C° 0 mm 1 mps 657 mmHg 71%
    13:00 -1°C° 0 mm 1 mps 656 mmHg 74%
    14:00 -1°C° 0 mm 1 mps 655 mmHg 76%
    15:00 -2°C° 0 mm 1 mps 655 mmHg 73%
    16:00 -3°C° 0 mm 1 mps 656 mmHg 70%
    17:00 -4°C° 0 mm 1 mps 656 mmHg 68%
    18:00 -4°C° 0 mm 1 mps 656 mmHg 68%
    19:00 -7°C° 0 mm 2 mps 656 mmHg 68%
    20:00 -7°C° 0 mm 2 mps 657 mmHg 68%
    21:00 -7°C° 0 mm 2 mps 657 mmHg 69%
    22:00 -7°C° 0 mm 2 mps 657 mmHg 70%
    23:00 -8°C° 0 mm 2 mps 658 mmHg 71%

    Day after tomorrow, 28 January, Tuesday

    Time Temperature Precipitation Wind Pressure Humidity
    00:00 -8°C° 0.1 mm 2 mps 658 mmHg 78%
    01:00 -8°C° 0.1 mm 2 mps 659 mmHg 85%
    02:00 -8°C° 0.1 mm 2 mps 659 mmHg 91%
    03:00 -8°C° 0.1 mm 2 mps 660 mmHg 92%
    04:00 -8°C° 0.1 mm 1 mps 660 mmHg 92%
    05:00 -8°C° 0.1 mm 1 mps 661 mmHg 93%
    06:00 -9°C° 0 mm 2 mps 661 mmHg 90%
    07:00 -9°C° 0 mm 2 mps 661 mmHg 88%
    08:00 -9°C° 0 mm 2 mps 661 mmHg 85%
    09:00 -7°C° 0 mm 1 mps 662 mmHg 83%
    10:00 -6°C° 0 mm 1 mps 662 mmHg 80%
    11:00 -3°C° 0 mm 1 mps 662 mmHg 77%
    12:00 -3°C° 0 mm 1 mps 661 mmHg 80%
    13:00 -3°C° 0 mm 1 mps 661 mmHg 83%
    14:00 -5°C° 0 mm 2 mps 661 mmHg 86%
    15:00 -6°C° 0 mm 2 mps 661 mmHg 88%
    16:00 -8°C° 0 mm 2 mps 661 mmHg 89%
    17:00 -9°C° 0 mm 2 mps 661 mmHg 90%
    18:00 -9°C° 0 mm 2 mps 661 mmHg 85%
    19:00 -10°C° 0 mm 2 mps 661 mmHg 81%
    20:00 -10°C° 0 mm 2 mps 661 mmHg 76%
    21:00 -10°C° 0 mm 2 mps 661 mmHg 74%
    22:00 -10°C° 0 mm 2 mps 662 mmHg 72%
    23:00 -10°C° 0 mm 2 mps 662 mmHg 71%

    29 January, Wednesday

    Time Temperature Precipitation Wind Pressure Humidity
    00:00 -10°C° 0 mm 2 mps 662 mmHg 71%
    01:00 -12°C° 0 mm 2 mps 662 mmHg 71%
    02:00 -12°C° 0 mm 2 mps 662 mmHg 71%
    03:00 -12°C° 0 mm 2 mps 662 mmHg 71%
    04:00 -12°C° 0 mm 2 mps 662 mmHg 71%
    05:00 -12°C° 0 mm 2 mps 662 mmHg 71%
    06:00 -12°C° 0 mm 2 mps 663 mmHg 71%
    07:00 -10°C° 0 mm 1 mps 663 mmHg 71%
    08:00 -10°C° 0 mm 1 mps 663 mmHg 72%
    09:00 -8°C° 0 mm 1 mps 663 mmHg 72%
    10:00 -6°C° 0 mm 1 mps 663 mmHg 72%
    11:00 -5°C° 0 mm 0 mps 663 mmHg 72%
    12:00 -4°C° 0 mm 1 mps 663 mmHg 75%
    13:00 -3°C° 0 mm 1 mps 662 mmHg 78%
    14:00 -3°C° 0 mm 1 mps 662 mmHg 81%
    15:00 -6°C° 0 mm 1 mps 661 mmHg 82%
    16:00 -8°C° 0 mm 1 mps 661 mmHg 83%
    17:00 -10°C° 0 mm 1 mps 661 mmHg 84%
    18:00 -10°C° 0 mm 1 mps 661 mmHg 80%
    19:00 -10°C° 0 mm 1 mps 661 mmHg 77%
    20:00 -10°C° 0 mm 1 mps 661 mmHg 73%
    21:00 -10°C° 0 mm 1 mps 661 mmHg 71%
    22:00 -10°C° 0 mm 1 mps 661 mmHg 68%
    23:00 -10°C° 0 mm 1 mps 660 mmHg 66%

    30 January, Thursday

    Time Temperature Precipitation Wind Pressure Humidity
    00:00 -10°C° 0 mm 1 mps 660 mmHg 64%
    01:00 -10°C° 0 mm 1 mps 660 mmHg 63%
    02:00 -11°C° 0 mm 1 mps 660 mmHg 61%
    03:00 -10°C° 0 mm 1 mps 660 mmHg 60%
    04:00 -10°C° 0 mm 1 mps 660 mmHg 60%
    05:00 -10°C° 0 mm 1 mps 660 mmHg 59%
    06:00 -9°C° 0 mm 1 mps 661 mmHg 59%
    07:00 -9°C° 0 mm 1 mps 661 mmHg 60%
    08:00 -9°C° 0 mm 1 mps 661 mmHg 60%
    09:00 -7°C° 0 mm 1 mps 661 mmHg 62%
    10:00 -6°C° 0 mm 1 mps 661 mmHg 64%
    11:00 -4°C° 0 mm 1 mps 661 mmHg 66%
    12:00 -4°C° 0 mm 1 mps 661 mmHg 70%
    13:00 -4°C° 0 mm 1 mps 661 mmHg 73%
    14:00 -4°C° 0 mm 1 mps 660 mmHg 76%
    15:00 -6°C° 0 mm 1 mps 660 mmHg 75%
    16:00 -7°C° 0 mm 0 mps 660 mmHg 74%
    17:00 -8°C° 0 mm 0 mps 660 mmHg 73%
    18:00 -8°C° 0 mm 0 mps 660 mmHg 71%
    19:00 -8°C° 0 mm 1 mps 660 mmHg 69%
    20:00 -8°C° 0 mm 1 mps 661 mmHg 67%
    21:00 -7°C° 0 mm 1 mps 661 mmHg 67%
    22:00 -7°C° 0 mm 1 mps 661 mmHg 66%
    23:00 -7°C° 0 mm 1 mps 661 mmHg 66%

    31 January, Friday

    Time Temperature Precipitation Wind Pressure Humidity
    00:00 -8°C° 0 mm 1 mps 661 mmHg 66%
    01:00 -8°C° 0 mm 1 mps 661 mmHg 66%
    02:00 -8°C° 0 mm 1 mps 661 mmHg 66%
    03:00 -8°C° 0 mm 1 mps 661 mmHg 65%
    04:00 -8°C° 0 mm 1 mps 661 mmHg 65%
    05:00 -8°C° 0 mm 1 mps 661 mmHg 64%
    06:00 -8°C° 0 mm 1 mps 661 mmHg 64%
    07:00 -8°C° 0 mm 1 mps 662 mmHg 65%
    08:00 -8°C° 0 mm 1 mps 662 mmHg 65%
    09:00 -6°C° 0 mm 1 mps 662 mmHg 67%
    10:00 -3°C° 0 mm 1 mps 663 mmHg 69%
    11:00 -2°C° 0 mm 1 mps 663 mmHg 70%
    12:00 -2°C° 0 mm 1 mps 662 mmHg 73%
    13:00 -2°C° 0 mm 1 mps 662 mmHg 76%
    14:00 -2°C° 0 mm 1 mps 662 mmHg 79%
    15:00 -3°C° 0 mm 1 mps 662 mmHg 77%
    16:00 -6°C° 0 mm 1 mps 662 mmHg 75%
    17:00 -7°C° 0 mm 1 mps 662 mmHg 73%
    18:00 -7°C° 0 mm 1 mps 662 mmHg 70%
    19:00 -7°C° 0 mm 1 mps 663 mmHg 67%
    20:00 -8°C° 0 mm 2 mps 663 mmHg 64%
    21:00 -9°C° 0 mm 2 mps 663 mmHg 63%
    22:00 -9°C° 0 mm 2 mps 663 mmHg 62%
    23:00 -9°C° 0 mm 2 mps 663 mmHg 60%
    Show more